Location: Spring Creek
(38.2870°N, 100.2160°W)
Time: 22:15:33
(UTC+00:00)

OBJECT-B - Pass Details

Date: 08 May 2021
Orbit: 414 x 423 km, 97.0° (Epoch: 05 June)

Event Time Altitude Azimuth Distance (km) Brightness Sun altitude
Exits shadow 03:19:10 - 209° (SSW) 1,890 3.9 -17.7°
Reaches altitude 10° 03:20:20 10° 221° (SW) 1,507 3.6 -17.9°
Maximum altitude 03:22:36 18° 266° (W) 1,129 3.5 -18.2°
Drops below altitude 10° 03:24:53 10° 310° (NW) 1,519 4.9 -18.6°
Sets 03:27:23 0° 331° (NNW) 2,391 5.9 -18.9°
